Flag for Germany Weather past 2 weeks in Elmshorn, Schleswig-Holstein, Germany

Now
55 °F

Passing clouds.


Feels Like: 52 °F
Forecast: 44 / 60 °F
Wind: 14 mph from Southwest

Location: Hamburg-Fuhlsbuettel

Current Time: May 28, 2015 at 4:55:11 AM

Latest Report: May 28, 2015 at 4:20 AM


Visibility: N/A

Pressure: 29.92 "Hg

Humidity: 59%

Dew point: 41 °F

Location of ElmshornLocation

Historic Weather in Elmshorn — Graph

°F

Elmshorn temperature yesterday

Maximum temperature yesterday: 59 °F (at 2:50 PM)
Minimum temperature yesterday: 46 °F (at 12:50 AM)
Average temperature yesterday: 53 °F

Past Weeks' High & Low Weather Summary

 TemperatureHumidityPressure
High66 °F (May 22, 4:20 PM)100% (May 21, 2:20 AM)30.30 "Hg (May 21, 2:20 AM)
Low37 °F (May 24, 3:50 AM)40% (May 24, 6:50 PM)29.56 "Hg (May 19, 2:20 AM)
Average51 °F75%30.01 "Hg
* Reported May 13 3:20 AM — May 28 3:20 AM, Elmshorn, Weather by CustomWeather, © 2015

Note: Actual official high and low records may vary slightly from our data, if they occured in-between our weather recording intervals... More about our weather records

Advertising

Elmshorn weather history for previous 24 hours

 ConditionsComfort  
Time TempWeatherWind HumidityBarometerVisibility
3:20 AM
Thu, May 28
55 °FClear.13 mph59%29.92 "Hg10 mi
2:50 AM55 °FClear.12 mph59%29.95 "Hg10 mi
2:20 AM54 °FClear.9 mph67%29.95 "Hg10 mi
1:50 AM54 °FClear.9 mph67%29.98 "Hg10 mi
1:20 AM54 °FClear.9 mph67%29.98 "Hg10 mi
12:50 AM55 °FClear.9 mph63%30.01 "Hg10 mi
12:20 AM55 °FClear.9 mph63%30.01 "Hg10 mi
11:50 PM
Wed, May 27
55 °FClear.12 mph63%30.04 "Hg10 mi
11:20 PM55 °FPassing clouds.9 mph63%30.04 "HgN/A
10:50 PM55 °FClear.8 mph63%30.04 "Hg10 mi
10:20 PM55 °FSunny.8 mph63%30.07 "Hg10 mi
9:50 PM55 °FPassing clouds.3 mph63%30.07 "HgN/A
9:20 PM54 °FBroken clouds.No wind63%30.07 "HgN/A
8:50 PM55 °FPartly sunny.1 mph63%30.07 "HgN/A
8:20 PM55 °FPassing clouds.3 mph63%30.07 "HgN/A
7:50 PM57 °FPartly sunny.6 mph55%30.09 "HgN/A
7:20 PM57 °FPartly sunny.8 mph55%30.09 "HgN/A
6:50 PM59 °FPartly sunny.10 mph55%30.09 "HgN/A
6:20 PM57 °FScattered clouds.10 mph51%30.09 "HgN/A
5:50 PM59 °FPartly sunny.12 mph51%30.12 "HgN/A
5:20 PM59 °FScattered clouds.12 mph48%30.12 "HgN/A
4:50 PM59 °FPassing clouds.15 mph48%30.12 "HgN/A
4:20 PM59 °FScattered clouds.16 mph45%30.12 "HgN/A
3:50 PM59 °FPartly sunny.14 mph45%30.12 "HgN/A
3:20 PM59 °FScattered clouds.15 mph51%30.12 "HgN/A
2:50 PM59 °FScattered clouds.17 mph55%30.15 "HgN/A
2:20 PM57 °FScattered clouds.17 mph55%30.15 "HgN/A
1:50 PM57 °FScattered clouds.15 mph55%30.15 "HgN/A
1:20 PM54 °FPartly sunny.14 mph63%30.15 "HgN/A
12:50 PM54 °FPartly sunny.16 mph63%30.15 "HgN/A
12:20 PM54 °FSprinkles. Partly sunny.12 mph67%30.15 "HgN/A
11:50 AM52 °FPartly sunny.14 mph72%30.15 "HgN/A
11:20 AM54 °FBroken clouds.14 mph67%30.15 "HgN/A
10:50 AM52 °FPartly sunny.12 mph67%30.15 "HgN/A
10:20 AM52 °FPartly sunny.13 mph67%30.15 "HgN/A
9:50 AM52 °FBroken clouds.13 mph67%30.15 "HgN/A
9:20 AM52 °FBroken clouds.12 mph72%30.15 "HgN/A
8:50 AM54 °FBroken clouds.12 mph77%30.15 "HgN/A
8:20 AM50 °FPartly sunny.10 mph76%30.15 "HgN/A
7:50 AM50 °FPartly sunny.10 mph82%30.15 "HgN/A
7:20 AM50 °FScattered clouds.9 mph82%30.12 "HgN/A
6:50 AM48 °FPartly sunny.7 mph87%30.12 "HgN/A
6:20 AM48 °FPartly sunny.7 mph94%30.12 "HgN/A
5:50 AM48 °FPassing clouds.6 mph94%30.12 "HgN/A
5:20 AM48 °FPartly cloudy.8 mph94%30.12 "HgN/A
4:50 AM48 °FScattered showers. Partly cloudy.7 mph94%30.12 "HgN/A
4:20 AM48 °FSprinkles. Partly cloudy.5 mph94%30.12 "HgN/A
Weather by CustomWeather, © 2015

See weather overviewHow to use our weather pages